User: anonymous   Login
Location: Unspecified
(0.0000°N, 0.0000°E)
Time: 06:41:07
(UTC+01:00)
Language:

SJ-6B - Orbit

View from above orbital plane
View from above orbital plane
View from above satellite
View from above satellite

Ground track
Ground track

The orbit data is extracted from the following two-line orbital elements,

1 28415U 04035C   16039.51601039  .00002275  00000-0  15821-3 0  9992
2 28415  97.7864  59.0069 0053324   0.3370 359.7882 15.05422395624136
Epoch (UTC): 08 February 2016 12:23:03
Eccentricity: 0.0053324
inclination: 97.7864°
perigee height: 513 km
apogee height: 587 km
right ascension of ascending node: 59.0069°
argument of perigee: 0.3370°
revolutions per day: 15.05422395
mean anomaly at epoch: 359.7882°
orbit number at epoch: 62413

The dashed part of the orbit path shows where the satellite is in the earth's shadow,  

DLR